Location: Hungerford
(51.4167°N, 1.5167°W)
Time: 21:46:30
(UTC+00:00)

NOSS 2-2 (C) - Pass Details

Date: 18 September 2020
Orbit: 468 x 1740 km, 63.3° (Epoch: 19 October)

Event Time Altitude Azimuth Distance (km) Brightness Sun altitude
Rises 20:04:33 0° 222° (SW) 2,499 6.9 -17.6°
Reaches altitude 10° 20:06:33 10° 222° (SW) 1,636 5.9 -17.9°
Maximum altitude 20:10:05 86° 131° (SE) 513 3.0 -18.4°
Drops below altitude 10° 20:14:11 10° 46° (NE) 1,901 5.9 -19.0°
Enters shadow 20:15:46 - 46° (NE) 2,572 6.6 -19.2°
